Date String (YYYY-MM-DD hh:mm:ss) UTC,Instrument flags,Ambient pressure (hPa),Sample flow (lpm),Bypass flow (lpm),Sample temperature (°C),Ambient temperature (°C),ASC tube jacket temperature (°C),LED temperature (°C),Box temperature (°C),Sample RH (%),Span deviation,Mass concentration (μg/m³),Mass concentration (μg/m³),Mass concentration (μg/m³)
DateTimeUTC,F1_M11,P_M11,Q1_M11,Q2_M11,T1_M11,T2_M11,T3_M11,T4_M11,T5_M11,U1_M11,ZSPAN_M11,X2_M11,X0_M11,X1_M11
2022-12-23 02:00:00,,0830.6,5.04,0.00,21.2,20.6,00.0,29.9,22.7,02.3,0000.2,0004.69,0008.99,0004.26
2022-12-23 02:01:00,,0830.5,4.97,0.00,21.1,19.5,00.0,29.9,22.3,02.3,0000.1,0004.64,0008.90,0004.22
2022-12-23 02:02:00,,0830.4,4.98,0.00,20.9,18.7,00.0,29.9,22.0,02.3,0000.4,0004.61,0008.84,0004.18
2022-12-23 02:03:00,,0830.5,5.03,0.00,20.9,19.7,00.0,29.8,22.3,02.3,0000.5,0004.57,0008.95,0004.15
2022-12-23 02:04:00,,0830.5,4.97,0.00,21.0,20.7,00.0,29.8,22.6,02.3,0001.1,0004.51,0008.88,0004.11
2022-12-23 02:05:00,,0830.6,5.02,0.00,21.1,21.4,00.0,29.8,22.8,02.3,0001.2,0004.48,0008.83,0004.08
2022-12-23 02:06:00,,0830.6,4.97,0.00,21.2,21.8,00.0,29.8,23.0,02.3,0001.3,0004.47,0008.55,0004.06
2022-12-23 02:07:00,,0830.5,5.04,0.00,21.2,21.1,00.0,29.9,22.8,02.3,0002.0,0004.44,0008.57,0004.03
2022-12-23 02:08:00,,0830.4,4.98,0.00,21.1,20.0,00.0,29.9,22.5,02.3,0002.7,0004.42,0008.54,0004.01
2022-12-23 02:09:00,,0830.4,4.99,0.00,21.0,19.0,00.0,29.9,22.2,02.3,0002.5,0004.40,0008.50,0004.01
2022-12-23 02:10:00,,0830.4,5.03,0.00,20.9,19.2,00.0,29.8,22.2,02.3,0002.4,0004.36,0008.31,0003.98
2022-12-23 02:11:00,,0830.4,5.03,0.00,21.0,20.3,00.0,29.8,22.5,02.3,0002.1,0004.34,0007.76,0003.96
2022-12-23 02:12:00,,0830.4,4.97,0.00,21.1,21.1,00.0,29.8,22.7,02.3,0002.1,0004.33,0007.74,0003.95
2022-12-23 02:13:00,,0830.4,5.02,0.00,21.2,21.7,00.0,29.8,23.0,02.3,0002.0,0004.33,0007.80,0003.95
2022-12-23 02:14:00,,0830.4,5.00,0.00,21.3,21.7,00.0,29.8,23.0,02.3,0002.0,0004.33,0007.92,0003.94
2022-12-23 02:15:00,,0830.4,4.99,0.00,21.2,20.3,00.0,29.9,22.6,02.3,0002.1,0004.36,0008.67,0003.95
2022-12-23 02:16:00,,0830.5,5.02,0.00,21.0,19.1,00.0,29.9,22.1,02.3,0001.5,0004.42,0008.90,0003.96
2022-12-23 02:17:00,,0830.6,5.02,0.00,20.8,19.3,00.0,29.8,22.1,02.3,0001.7,0004.43,0008.85,0003.96
2022-12-23 02:18:00,,0830.6,4.95,0.00,20.9,20.2,00.0,29.8,22.4,02.3,0000.0,0004.44,0008.81,0003.96
2022-12-23 02:19:00,,0830.6,5.04,0.00,21.0,20.9,00.0,29.8,22.6,02.3,0000.0,0004.45,0009.16,0003.97
2022-12-23 02:20:00,,0830.6,4.97,0.00,21.1,21.3,00.0,29.7,22.8,02.3,0000.0,0004.47,0009.78,0003.96
2022-12-23 02:21:00,,0830.6,5.04,0.00,21.2,21.5,00.0,29.8,22.9,02.3,0000.7,0004.45,0009.80,0003.96
2022-12-23 02:22:00,,0830.4,4.97,0.00,21.3,21.8,00.0,29.8,23.1,02.3,0001.7,0004.42,0009.92,0003.95
2022-12-23 02:23:00,,0830.4,5.04,0.00,21.4,22.0,00.0,29.8,23.2,02.3,0001.6,0004.44,0010.18,0003.93
2022-12-23 02:24:00,,0830.6,4.97,0.00,21.5,22.1,00.0,29.9,23.3,02.3,0001.7,0004.50,0010.42,0003.97
2022-12-23 02:25:00,,0830.6,5.02,0.00,21.5,21.3,00.0,30.0,22.9,02.3,0000.8,0004.56,0010.36,0004.03
2022-12-23 02:26:00,,0830.5,4.97,0.00,21.2,19.6,00.0,30.0,22.4,02.3,0002.0,0004.58,0009.93,0004.06
2022-12-23 02:27:00,,0830.5,5.03,0.00,21.0,18.6,00.0,30.0,22.0,02.4,0003.6,0004.53,0010.13,0004.08
2022-12-23 02:28:00,,0830.4,5.03,0.00,21.0,19.3,00.0,29.9,22.1,02.4,0003.9,0004.52,0010.11,0004.10
2022-12-23 02:29:00,,0830.3,4.98,0.00,21.1,20.2,00.0,29.9,22.4,02.4,0003.9,0004.53,0010.05,0004.13
2022-12-23 02:30:00,,0830.4,5.01,0.00,21.1,20.9,00.0,29.8,22.7,02.4,0004.2,0004.56,0009.78,0004.16
2022-12-23 02:31:00,,0830.4,4.99,0.00,21.2,21.5,00.0,29.9,22.9,02.3,0004.7,0004.60,0009.28,0004.18
2022-12-23 02:32:00,,0830.4,5.02,0.00,21.3,21.9,00.0,29.9,23.0,02.3,0004.8,0004.66,0009.34,0004.22
2022-12-23 02:33:00,,0830.4,4.98,0.00,21.4,22.2,00.0,29.9,23.2,02.3,0004.9,0004.70,0009.17,0004.25
2022-12-23 02:34:00,,0830.3,5.04,0.00,21.5,22.0,00.0,30.0,23.2,02.3,0004.9,0004.72,0009.34,0004.28
2022-12-23 02:35:00,,0830.4,4.95,0.00,21.4,21.1,00.0,30.1,23.0,02.3,0004.7,0004.69,0009.16,0004.27
2022-12-23 02:36:00,,0830.4,5.04,0.00,21.3,20.0,00.0,30.1,22.7,02.3,0004.6,0004.63,0008.94,0004.22
2022-12-23 02:37:00,,0830.4,5.01,0.00,21.2,19.6,00.0,30.1,22.5,02.3,0004.5,0004.64,0008.65,0004.20
2022-12-23 02:38:00,,0830.5,4.96,0.00,21.2,20.5,00.0,30.0,22.8,02.3,0004.0,0004.65,0008.31,0004.18
2022-12-23 02:39:00,,0830.4,5.04,0.00,21.4,21.2,00.0,30.0,23.0,02.3,0003.2,0004.67,0008.36,0004.17
2022-12-23 02:40:00,,0830.4,4.96,0.00,21.4,21.6,00.0,30.0,23.1,02.3,0002.3,0004.69,0008.45,0004.16
2022-12-23 02:41:00,,0830.4,5.02,0.00,21.5,22.1,00.0,30.0,23.3,02.3,0000.9,0004.70,0008.79,0004.15
2022-12-23 02:42:00,,0830.4,4.96,0.00,21.6,21.9,00.0,30.1,23.3,02.3,0000.7,0004.68,0008.99,0004.14
2022-12-23 02:43:00,,0830.5,5.04,0.00,21.5,20.8,00.0,30.2,22.9,02.3,0000.0,0004.66,0009.49,0004.14
2022-12-23 02:44:00,,0830.4,5.02,0.00,21.3,19.6,00.0,30.2,22.5,02.3,0000.0,0004.68,0009.51,0004.12
2022-12-23 02:45:00,,0830.4,4.98,0.00,21.2,19.2,00.0,30.1,22.3,02.3,0000.0,0004.70,0009.25,0004.14
2022-12-23 02:46:00,,0830.5,4.97,0.00,21.2,20.1,00.0,30.1,22.6,02.3,0000.0,0004.70,0009.09,0004.14
2022-12-23 02:47:00,,0830.4,5.03,0.00,21.3,21.0,00.0,30.0,22.8,02.3,-000.2,0004.72,0009.17,0004.14
2022-12-23 02:48:00,,0830.4,4.96,0.00,21.4,21.5,00.0,30.0,23.0,02.3,-000.6,0004.71,0009.37,0004.15
2022-12-23 02:49:00,,0830.4,5.03,0.00,21.5,21.9,00.0,30.0,23.2,02.3,-000.5,0004.71,0009.47,0004.15
2022-12-23 02:50:00,,0830.4,4.95,0.00,21.5,21.4,00.0,30.1,23.1,02.3,-000.2,0004.68,0009.43,0004.14
2022-12-23 02:51:00,,0830.4,5.03,0.00,21.3,19.9,00.0,30.1,22.6,02.3,0000.3,0004.65,0009.35,0004.14
2022-12-23 02:52:00,,0830.4,5.01,0.00,21.1,18.9,00.0,30.1,22.1,02.3,0000.2,0004.62,0009.10,0004.13
2022-12-23 02:53:00,,0830.4,5.01,0.00,21.1,19.5,00.0,30.0,22.3,02.4,0001.0,0004.63,0009.19,0004.12
2022-12-23 02:54:00,,0830.4,4.98,0.00,21.2,20.5,00.0,30.0,22.6,02.4,0000.7,0004.62,0008.89,0004.12
2022-12-23 02:55:00,,0830.5,5.04,0.00,21.3,21.1,00.0,30.0,22.8,02.3,0001.0,0004.61,0008.90,0004.14
2022-12-23 02:56:00,,0830.4,4.97,0.00,21.3,21.6,00.0,30.0,23.0,02.3,0000.6,0004.58,0008.82,0004.12
2022-12-23 02:57:00,,0830.4,5.04,0.00,21.4,21.8,00.0,30.0,23.1,02.3,0000.7,0004.59,0009.09,0004.12
2022-12-23 02:58:00,,0830.3,4.97,0.00,21.4,20.8,00.0,30.1,22.9,02.3,0000.9,0004.59,0009.10,0004.14
2022-12-23 02:59:00,,0830.4,5.03,0.00,21.2,19.6,00.0,30.1,22.5,02.3,0000.7,0004.61,0008.95,0004.15
